Vicksburg, LA

12:20 AM CDT on August 24, 2017 (GMT -0500)
Vicksburg Tallulah Regional

Weather History for KTVR - March, 2014

Change the Weather History Date:

Wednesday, March 26, 2014

  Actual Average Record
Temperature  
Mean Temperature 47 °F 60 °F  
Max Temperature 65 °F 71 °F 86 °F (2011)
Min Temperature 28 °F 48 °F 26 °F (1955)
Degree Days  
Heating Degree Days 18 6  
Month to date heating degree days 346 235  
Since 1 July heating degree days 2755 2211  
Cooling Degree Days 0 1  
Month to date cooling degree days 2 23  
Year to date cooling degree days 9 32  
Moisture  
Dew Point 28 °F    
Average Humidity 61    
Maximum Humidity 100    
Minimum Humidity 21    
Precipitation  
Precipitation T in 0.17 in 1.53 in (2000)
Month to date precipitation 3.19 4.26  
Year to date precipitation 8.61 14.60  
Sea Level Pressure  
Sea Level Pressure 30.28 in    
Wind  
Wind Speed 8 mph (SE)    
Max Wind Speed 16 mph    
Max Gust Speed 22 mph    
Visibility 10 miles    
Events      
T = Trace of Precipitation, MM = Missing Value Source: NWS Daily Summary

Daily Weather History Graph

Daily Weather History Graph

Search for Another Location

Airport or City:

Trip Planner

Search our weather history database for the weather conditions in past years. The results will help you decide how hot, cold, wet, or windy it might be!

Date:

Astronomy

Mar. 26, 2014 Rise Set
Actual Time 7:00 AM CDT 7:19 PM CDT
Civil Twilight 6:35 AM CDT 7:44 PM CDT
Nautical Twilight 6:06 AM CDT 8:13 PM CDT
Astronomical Twilight 5:37 AM CDT 8:42 PM CDT
Moon 3:54 AM CDT (3/26) 3:11 PM CDT (3/26)
Length of Visible Light 13h 08m
Length of Day
12h 19m
Waning Crescent, 21% of the Moon is Illuminated
Mar 26
Waning Crescent
Mar 30
New
Apr 7
First Quarter
Apr 15
Full
Apr 22
Last Quarter

Hourly Weather History & Observations

Time (CDT) Temp. Windchill Dew Point Humidity Pressure Visibility Wind Dir Wind Speed Gust Speed Precip Events Conditions
12:53 AM 34.0 °F - 30.9 °F 89% 30.32 in 10.0 mi Calm Calm - N/A   Clear
1:53 AM 30.9 °F - 28.9 °F 92% 30.31 in 10.0 mi Calm Calm - N/A   Clear
2:53 AM 32.0 °F - 28.9 °F 88% 30.30 in 10.0 mi Calm Calm - N/A   Clear
3:53 AM 30.9 °F - 30.0 °F 96% 30.31 in 10.0 mi Calm Calm - N/A   Clear
4:53 AM 28.9 °F - 28.9 °F 100% 30.32 in 9.0 mi Calm Calm - N/A   Clear
5:53 AM 33.1 °F 28.7 °F 30.0 °F 89% 30.32 in 10.0 mi ESE 4.6 mph - N/A   Clear
6:53 AM 30.9 °F 27.5 °F 27.0 °F 85% 30.35 in 10.0 mi SE 3.5 mph - N/A   Clear
7:53 AM 36.0 °F 32.1 °F 32.0 °F 86% 30.37 in 10.0 mi East 4.6 mph - N/A   Clear
8:53 AM 45.0 °F 38.9 °F 28.0 °F 52% 30.38 in 10.0 mi ESE 12.7 mph - N/A   Clear
9:53 AM 50.0 °F - 27.0 °F 41% 30.40 in 10.0 mi East 10.4 mph - N/A   Clear
10:53 AM 52.0 °F - 25.0 °F 35% 30.39 in 10.0 mi ESE 9.2 mph - N/A   Clear
11:53 AM 55.9 °F - 26.1 °F 32% 30.38 in 10.0 mi ESE 8.1 mph - N/A   Clear
12:53 PM 57.9 °F - 25.0 °F 28% 30.33 in 10.0 mi ENE 10.4 mph - N/A   Clear
1:53 PM 61.0 °F - 25.0 °F 25% 30.29 in 10.0 mi East 11.5 mph 20.7 mph N/A   Clear
2:53 PM 63.0 °F - 24.1 °F 23% 30.25 in 10.0 mi SE 10.4 mph 19.6 mph N/A   Clear
3:53 PM 64.9 °F - 26.1 °F 23% 30.21 in 10.0 mi SE 11.5 mph 18.4 mph N/A   Clear
4:53 PM 64.0 °F - 24.1 °F 22% 30.18 in 10.0 mi SSE 9.2 mph - N/A   Clear
5:53 PM 62.1 °F - 23.0 °F 22% 30.18 in 10.0 mi South 11.5 mph - N/A   Clear
6:53 PM 59.0 °F - 26.1 °F 28% 30.19 in 10.0 mi SSE 9.2 mph - N/A   Clear
7:53 PM 57.9 °F - 27.0 °F 31% 30.18 in 10.0 mi SSE 12.7 mph - N/A   Clear
8:53 PM 55.9 °F - 28.0 °F 34% 30.21 in 10.0 mi South 9.2 mph - N/A   Clear
9:53 PM 55.0 °F - 28.9 °F 37% 30.22 in 10.0 mi SSE 6.9 mph - N/A   Mostly Cloudy
10:53 PM 55.0 °F - 28.9 °F 37% 30.20 in 10.0 mi SSE 9.2 mph - N/A   Overcast
11:53 PM 54.0 °F - 32.0 °F 43% 30.18 in 10.0 mi SSE 10.4 mph - N/A   Overcast